Вы находитесь на странице: 1из 13

HUMEDAD

TEMPERATURA PRECIPITACIÓN
RELATIVA
AÑO / MES / DÍA (°C) (%) (mm/día)

MAX MIN TOTAL

9/1/2018 20.8 4.9 59.8 0

9/2/2018 22.2 4.5 64.9 0

9/3/2018 22 4.7 57.2 T

9/4/2018 22.6 11 48.2 0

9/5/2018 23.6 4.6 56.3 0

9/6/2018 24.1 3 56.1 0

9/7/2018 24.4 3.2 52.2 0

9/8/2018 23.7 2 52.2 0

9/9/2018 23.8 3.8 59.6 0

9/10/2018 22.7 4.6 63.1 0

9/11/2018 21.6 4.8 61.9 0

9/12/2018 24 4.6 63 T

9/13/2018 22.5 5.1 56.1 T

9/14/2018 22.4 5 60.8 T

9/15/2018 21 8.1 67.6 0.1

9/16/2018 24.1 9.9 56.2 0

9/17/2018 22.9 10.4 61.5 3.5

9/18/2018 23.8 10 52.6 0

9/19/2018 23 5.8 54 0

9/20/2018 21.5 6.2 51.6 0.2

9/21/2018 21.7 11.4 42.6 0

9/22/2018 21.4 7.9 39.5 0

9/23/2018 23.8 6.1 45.6 1.8

9/24/2018 23.6 9.8 50.7 0

9/25/2018 22.6 8.4 63.5 T

9/26/2018 20.7 7.1 71.2 11.2

9/27/2018 20.1 10.2 81.2 7.6

9/28/2018 23.2 6 58.4 T

9/29/2018 23 7.4 58.5 T

9/30/2018 25.2 7.7 56.6 T


HUMEDAD
TEMPERATURA PRECIPITACIÓN
RELATIVA
AÑO / MES / DÍA (°C) (%) (mm/día)

MAX MIN TOTAL

10/1/2018 22.6 8.8 62.4 0.2

10/2/2018 22.3 8.2 67 0.4

10/3/2018 21.4 7.4 69.3 3.1

10/4/2018 19.3 7.6 70.6 0.4

10/5/2018 19.8 7.8 65.1 0.1

10/6/2018 23.1 7.6 61.5 0.5

10/7/2018 22.9 11.6 69.6 0.3

10/8/2018 22.9 10.6 64.4 T

10/9/2018 23.9 6.8 57.1 0

10/10/2018 23.5 7.8 49.7 0

10/11/2018 23.2 7.2 45.8 0

10/12/2018 21.1 6.6 47.8 0

10/13/2018 20.6 6 46.8 0

10/14/2018 22.5 6.8 73 7.8

10/15/2018 22.6 9.5 61.4 1

10/16/2018 22.7 9.4 60.6 0.3

10/17/2018 22.9 11.9 65.3 0.2

10/18/2018 22.7 11.4 74.6 13.7

10/19/2018 21.7 9.3 75.5 T

10/20/2018 22.9 7.4 60.9 0

10/21/2018 21 10.4 67.3 0

10/22/2018 22 8.6 56.3 0

10/23/2018 21.9 5.2 40.4 0

10/24/2018 22.6 10.9 51.3 0

10/25/2018 23.3 6 53.9 0

10/26/2018 24.8 4.8 46.5 0

10/27/2018 23.6 7.4 61.8 0.6

10/28/2018 22.2 12.5 70.4 1.4

10/29/2018 20.4 12.4 82.1 7.2

10/30/2018 22.8 12 65.4 11.3

10/31/2018 20.1 11.4 76.1 13.1


HUMEDAD
TEMPERATURA PRECIPITACIÓN
RELATIVA
AÑO / MES / DÍA (°C) (%) (mm/día)

MAX MIN TOTAL

11/1/2018 21 10.4 68.5 5.5

11/2/2018 22.6 8.1 76.9 6.4

11/3/2018 21.6 11.9 73.7 5

11/4/2018 21.3 8.5 66.8 0

11/5/2018 21.9 7.6 56.6 0

11/6/2018 23.4 7.7 51.7 0

11/7/2018 22.2 7.2 69.3 2.5

11/8/2018 20.9 10.4 85.2 10.1

11/9/2018 22.3 10.1 72.9 2.6

11/10/2018 23.2 9.1 64.9 4.9

11/11/2018 21.3 11.8 75.8 0.2

11/12/2018 23.2 12.2 68.6 0

11/13/2018 24 11 58 0

11/14/2018 22.4 7.6 59.3 T

11/15/2018 20.3 12.2 71.1 14

11/16/2018 20.2 12.3 80.3 1.5

11/17/2018 23.2 11.8 60.3 T

11/18/2018 22 12.1 76.1 8.6

11/19/2018 20.7 9.8 77.9 11.4

11/20/2018 21.6 12.3 74.5 8.6

11/21/2018 20.9 12.6 76.4 3.8

11/22/2018 21.7 10.9 67.3 0.8

11/23/2018 22.7 9.9 57 0.2

11/24/2018 23.2 7.3 60 3.5

11/25/2018 20.8 12.4 72.2 4.4

11/26/2018 19.8 10.4 84.2 3.4

11/27/2018 22.1 10.2 51.6 0

11/28/2018 22 6 50.1 0

11/29/2018 23.1 4.5 47.2 0

11/30/2018 23.5 4.8 41.4 0


HUMEDAD
TEMPERATURA PRECIPITACIÓN
RELATIVA
AÑO / MES / DÍA (°C) (%) (mm/día)

MAX MIN TOTAL

12/1/2018 23.5 3.8 42.1 0

12/2/2018 23.2 1.6 37.5 0

12/3/2018 22.8 3 39.8 0

12/4/2018 22.5 3.4 39.1 0

12/5/2018 22.2 3.2 37.3 0

12/6/2018 23.4 3.4 44.2 2.5

12/7/2018 18 8.8 68.8 0.8

12/8/2018 21.8 10.2 54.9 T

12/9/2018 21.6 7.8 52.9 T

12/10/2018 21.4 8.6 69.5 2.4

12/11/2018 18.9 8 69.3 1.6

12/12/2018 22.1 5.1 54.8 0

12/13/2018 21.3 7 60 0.4

12/14/2018 20.6 10.6 76.6 6.9

12/15/2018 21.7 11.2 63.2 -887.5

12/16/2018 21 10.4 66.9 0

12/17/2018 22.2 11.4 57.9 0.1

12/18/2018 22.5 11 64.5 3.2

12/19/2018 20.9 11.2 76.4 11

12/20/2018 19.4 11 81.7 16.2

12/21/2018 20 11.8 72 10.4

12/22/2018 19.1 10.9 79.6 3.4

12/23/2018 21.2 11.5 73 3.9

12/24/2018 23.1 9.2 64.7 0.7

12/25/2018 21.1 9.3 58.9 0

12/26/2018 20.9 9 70.3 4.6

12/27/2018 21.1 9.2 63.1 0.6

12/28/2018 22.6 9.3 57.8 0

12/29/2018 23.1 7.6 63.9 0

12/30/2018 24.5 8.7 63.2 0

12/31/2018 22.8 7.8 54.9 0


HUMEDAD
TEMPERATURA PRECIPITACIÓN
RELATIVA
AÑO / MES / DÍA (°C) (%) (mm/día)

MAX MIN TOTAL

1/1/2019 21.6 7.8 48.9 0

1/2/2019 23.5 8.1 50.8 0

1/3/2019 22.6 8.9 51.7 T

1/4/2019 22.2 8.6 59.3 0

1/5/2019 22.6 12.2 71.4 14.6

1/6/2019 23.4 10.6 62.7 0

1/7/2019 21.8 10.9 53.6 5.9

1/8/2019 18.5 9.2 72.2 0.1

1/9/2019 21.5 6.8 59.6 0

1/10/2019 18.1 11.1 70 0

1/11/2019 22.1 8 59.2 0

1/12/2019 22.8 6.2 57.3 0

1/13/2019 23 5.8 57.1 0

1/14/2019 24.1 6.1 70.1 0.1

1/15/2019 20.8 9.3 74.9 3.2

1/16/2019 19.3 11.1 79.3 1.5

1/17/2019 20.2 10.8 70.3 3.9

1/18/2019 20 11 81.2 3

1/19/2019 20.4 9 62.4 1.5

1/20/2019 22 9.2 55.6 0

1/21/2019 21.2 10.8 63.1 0.3

1/22/2019 22.4 9.8 59.2 T

1/23/2019 22.6 13.2 56.7 0.2

1/24/2019 23.4 11.5 61.1 2.2

1/25/2019 23.6 11 64.4 2.4

1/26/2019 24.2 10.6 62.3 3.3

1/27/2019 23.7 11.4 63.8 T

1/28/2019 23.5 12.4 61.7 0.5

1/29/2019 21 11.8 73.5 1

1/30/2019 22.4 10.9 68.2 T

1/31/2019 23.2 11.1 61.4 T


HUMEDAD
TEMPERATURA PRECIPITACIÓN
RELATIVA
AÑO / MES / DÍA (°C) (%) (mm/día)

MAX MIN TOTAL

2/1/2019 22.8 12 67.5 0

2/2/2019 23.6 12.2 63.2 1.1

2/3/2019 22.7 12.4 69.6 0.6

2/4/2019 23.4 11.8 67.2 2.4

2/5/2019 22.8 10.8 61.4 1.6

2/6/2019 23.4 11.3 66.3 14.8

2/7/2019 19.8 11.6 78 1.4

2/8/2019 19 11.8 72 4.1

2/9/2019 20.7 10.6 76.4 9.9

2/10/2019 20.6 12.2 71 2.3

2/11/2019 21.6 11.8 66 4.1

2/12/2019 20.2 12.6 76.1 6.7

2/13/2019 20.4 11.8 68.8 0.2

2/14/2019 23.1 11 66.5 T

2/15/2019 21.6 12.6 70.1 9.1

2/16/2019 23 12.4 66.4 0.4

2/17/2019 23.2 8.6 65.3 4.5

2/18/2019 22.2 12.8 65.3 0

2/19/2019 20.8 12.3 70.6 9.4

2/20/2019 21.3 11.9 74.7 13.5

2/21/2019 21.1 12.6 68.3 0.1

2/22/2019 21.9 12.4 67.6 2.1

2/23/2019 22.4 12.8 69 1.7

2/24/2019 21.7 11.1 67 5.7

2/25/2019 21.4 12.1 71.5 7.2

2/26/2019 22 10.1 68.9 1.2

2/27/2019 22.4 10.4 61.4 T

2/28/2019 22.5 6.9 64.3 0


HUMEDAD
TEMPERATURA PRECIPITACIÓN
RELATIVA
AÑO / MES / DÍA (°C) (%) (mm/día)

MAX MIN TOTAL

3/1/2019 19 11.4 82.9 25.5

3/2/2019 21.6 11.8 67.1 0.8

3/3/2019 19.4 8.8 75.8 2

3/4/2019 21.5 9.1 61.4 1.7

3/5/2019 22.6 11 68.7 11

3/6/2019 21.3 12 70.5 23.1

3/7/2019 21.1 11.2 73.7 4.6

3/8/2019 22.8 10.6 61.1 0.5

3/9/2019 22.3 12.9 57.3 0

3/10/2019 22.2 11.6 62.6 0

3/11/2019 21.9 11.3 67.6 2

3/12/2019 21.9 12.2 65.9 3.9

3/13/2019 22.8 13.2 69 6.8

3/14/2019 21.4 11.2 69.3 0.4

3/15/2019 20.1 12.6 81 19.5

3/16/2019 19.8 11.8 73.5 3.5

3/17/2019 21 12 63.3 4.2

3/18/2019 21.9 12.5 65.1 4.1

3/19/2019 22.8 10.9 72.2 15.1

3/20/2019 18.8 11.4 75.5 8.9

3/21/2019 19.7 12 79.7 10.3

3/22/2019 19.2 12.2 76.2 1.2

3/23/2019 21.2 11.8 70.5 7.5

3/24/2019 20.2 12 71.6 13.9

3/25/2019 20.4 11.2 65.7 0.3

3/26/2019 23 10 69.8 0

3/27/2019 21.6 13.1 60.2 0.3

3/28/2019 20.1 12.4 68.9 1.2

3/29/2019 21.6 11.7 69.1 0.4

3/30/2019 21.6 10.1 59.8 0

3/31/2019 22.2 7.4 65.4 0


HUMEDAD
TEMPERATURA PRECIPITACIÓN
RELATIVA
AÑO / MES / DÍA (°C) (%) (mm/día)

MAX MIN TOTAL

4/1/2019 21.8 9.4 74.6 9.7

4/2/2019 21.9 10.4 73.6 12.9

4/3/2019 20.6 11.8 69.5 1.3

4/4/2019 21.6 10.1 61.9 0

4/5/2019 22.6 6.8 63.6 0

4/6/2019 23 8.6 69.8 8.6

4/7/2019 19.3 12.4 62.5 0.3

4/8/2019 21.6 12 68.7 0.8

4/9/2019 22.8 7.6 66.3 0.3

4/10/2019 22.4 11.9 62.8 T

4/11/2019 22.3 7.4 65 2.1

4/12/2019 22.6 7.2 60.2 0

4/13/2019 21.7 10.9 61.6 0

4/14/2019 22.1 9.9 71.9 12.1

4/15/2019 21.6 9.4 67.6 0.1

4/16/2019 20.5 10.5 72.1 1.5

4/17/2019 22 10.1 65.2 0

4/18/2019 22.7 10.9 60.3 0

4/19/2019 21.2 8.8 71.5 7.8

4/20/2019 20.2 9.2 67.5 3.8

4/21/2019 22.6 12.2 65.4 2

4/22/2019 21.2 9.6 70 4.7

4/23/2019 21.6 9.8 71.4 0.1

4/24/2019 19.3 11.6 74.9 4.4

4/25/2019 21.2 9.6 60.7 0.1

4/26/2019 23.4 7.6 60.9 0

4/27/2019 21.4 8.5 71.2 2.4

4/28/2019 20.6 9.4 69.3 3.1

4/29/2019 22 10.1 65 0

4/30/2019 22.9 7.8 70.2 0


HUMEDAD
TEMPERATURA PRECIPITACIÓN
RELATIVA
AÑO / MES / DÍA (°C) (%) (mm/día)

MAX MIN TOTAL

5/1/2019 22.3 8.9 71 0.2

5/2/2019 22.2 11.5 64.6 0

5/3/2019 22.1 10.9 73.7 2.1

5/4/2019 20.8 10.4 73.2 0.3

5/5/2019 19.4 12.2 77.5 T

5/6/2019 21.6 8 69.3 T

5/7/2019 22.8 7.6 57.6 0

5/8/2019 23.3 5.3 63.2 0

5/9/2019 22.2 8.1 72.2 T

5/10/2019 22.5 8.1 67.2 T

5/11/2019 23.8 7.2 61.4 0

5/12/2019 21.1 6.4 72 6.4

5/13/2019 17.7 9.2 80.7 6.1

5/14/2019 19.9 11.2 72.2 2.7

5/15/2019 22.3 10.1 62 0

5/16/2019 22.4 9.2 51.1 0

5/17/2019 22.7 5.4 61.1 0

5/18/2019 22.8 5 60.8 0

5/19/2019 23.1 5.7 59.2 0

5/20/2019 21.8 7 65 2.2

5/21/2019 20.2 7.6 83.9 7

5/22/2019 22.2 10 64 0.1

5/23/2019 23.1 6.7 63.3 0

5/24/2019 20.2 9 69.5 0.5

5/25/2019 21.7 8.8 68.5 8.5

5/26/2019 21.6 9.9 63.8 T

5/27/2019 22.2 8.6 67.5 1.2

5/28/2019 21.6 6.9 65.6 0.1

5/29/2019 20.6 7.4 64.1 0

5/30/2019 23.3 6 61.8 0

5/31/2019 23.5 6.1 66.9 0


HUMEDAD
TEMPERATURA PRECIPITACIÓN
RELATIVA
AÑO / MES / DÍA (°C) (%) (mm/día)

MAX MIN TOTAL

6/1/2019 22.8 6.6 62.8 0

6/2/2019 23 5.8 58 0

6/3/2019 21.7 5.7 59.4 0

6/4/2019 21.4 9.3 62.5 0

6/5/2019 22.6 8.3 51.4 0

6/6/2019 23.3 4 55.5 0

6/7/2019 23.4 5 59.8 0

6/8/2019 22.9 8 56.5 0

6/9/2019 21.5 6.8 69.9 0.5

6/10/2019 22.8 7.4 66.3 T

6/11/2019 23 5.8 62.3 0

6/12/2019 22.6 5.4 65 0

6/13/2019 22.8 4.8 57.4 0

6/14/2019 22.2 6.4 62.6 0

6/15/2019 21.4 5.7 67.5 2.3

6/16/2019 23.2 10 60.1 0

6/17/2019 21.9 9.8 57.6 0

6/18/2019 20.8 7.8 56.7 0

6/19/2019 23.2 7.4 42.1 0

6/20/2019 21.7 10.4 42.4 0

6/21/2019 21.8 9 40.3 0

6/22/2019 21.8 8.6 41.4 0

6/23/2019 21.9 6 51.3 0

6/24/2019 23.8 4.8 55.1 0

6/25/2019 22.2 5.3 66.6 1.4

6/26/2019 22.6 5.2 53.6 0

6/27/2019 21.9 11.8 49.7 0

6/28/2019 21 11.2 64 0

6/29/2019 19 11.8 75.3 4.9

6/30/2019 21.4 6 56.9 0


HUMEDAD
TEMPERATURA PRECIPITACIÓN
RELATIVA
AÑO / MES / DÍA (°C) (%) (mm/día)

MAX MIN TOTAL

7/1/2019 22.4 5.1 59 0

7/2/2019 22.7 5.3 62.7 0

7/3/2019 24.8 4.4 57.7 0

7/4/2019 23.6 5.4 64.4 0

7/5/2019 17.8 6 70.5 0.2

7/6/2019 20.5 10.9 70 -887.9

7/7/2019 19.3 11.3 77.3 4.4

7/8/2019 21.9 4.2 53.8 0

7/9/2019 22.1 3.2 52.8 0

7/10/2019 22.4 3.2 50.4 0

7/11/2019 22.5 3.1 54.3 0

7/12/2019 22.8 4.6 58 0

7/13/2019 20.6 6.3 61 T

7/14/2019 18.2 9.4 70.8 1.8

7/15/2019 21 9.3 58 0

7/16/2019 20.9 4.6 54.7 0

7/17/2019 19.8 8.1 56.5 0

7/18/2019 22.4 6.9 51.4 0

7/19/2019 21.3 7.3 53.5 0

7/20/2019 20.6 9 55.3 0

7/21/2019 20 6.6 58.2 0

7/22/2019 20.2 6 67.2 1.7

7/23/2019 22.4 5.5 58 0

7/24/2019 19.9 10 63.5 1

7/25/2019 20.7 7.7 70.3 1.7

7/26/2019 20.8 6 58.9 0.4

7/27/2019 20.4 6.2 59.6 0.5

7/28/2019 21.4 3.7 50.4 0

7/29/2019 23.6 2.3 47.2 0

7/30/2019 23.6 2.6 41.4 0

7/31/2019 23.1 3.8 37.7 0


HUMEDAD
TEMPERATURA PRECIPITACIÓN
RELATIVA
AÑO / MES / DÍA (°C) (%) (mm/día)

MAX MIN TOTAL

8/1/2019 24.6 1.8 39.2 0

8/2/2019 24.7 3.4 41.1 0

8/3/2019 22.8 3.1 43.6 0

8/4/2019 22.2 4.2 43.6 0

8/5/2019 21.6 9.2 37.4 0

8/6/2019 23.4 3.3 48.5 0

8/7/2019 22.4 3.7 47.1 0

8/8/2019 22.9 3.8 49.4 0

8/9/2019 22 2.9 48.5 0

8/10/2019 21.9 4.4 50.3 0

8/11/2019 21.9 8 48.8 0

8/12/2019 21.5 8 53.9 0

8/13/2019 21 8.8 46.5 T

8/14/2019 18.5 7.5 54.5 T

8/15/2019 22 4.6 52 0

8/16/2019 23.3 2.7 50.3 0

8/17/2019 24.6 3.2 55.6 0

8/18/2019 24 4.3 48.9 0

8/19/2019 20.2 6 54.7 0

8/20/2019 20.2 7 49.2 0

8/21/2019 21.2 7.2 57.1 0

8/22/2019 20.1 10.3 54.3 0

8/23/2019 18.9 5.6 49 0

8/24/2019 22 4.4 55.3 0

8/25/2019 21.2 4.6 61 0

8/26/2019 21 4.7 57.9 0


HUMEDAD
TEMPERATURA PRECIPITACIÓN
RELATIVA
AÑO / MES / DÍA (°C) (%) (mm/día)

MAX MIN TOTAL

9/1/2019 22.7 3.9 54.1 0

9/2/2019 24.1 4.4 57.1 0

9/3/2019 22.6 7 57.2 0

9/4/2019 23.9 5.8 60 0

9/5/2019 21.1 13.8 54.2 0

9/6/2019 19.4 8.2 60.3 0

9/7/2019 20.8 5 62.4 T

9/8/2019 23.3 4 48.8 0

9/9/2019 23.8 6.8 45.7 0

9/10/2019 23.2 5.4 52.6 0

9/11/2019 19.7 6.1 66.3 T

9/12/2019 22.4 7.2 61.6 T

9/13/2019 20.6 9.1 63.1 0

9/14/2019 21.8 8.2 58.5 0

9/15/2019 S/D 4.9 S/D 0